Flag for U.S.A. Weather past 2 weeks in Dallas, Texas, U.S.A.

Now
48 °F

Clear.


Feels Like: 44 °F
Forecast: 51 / 79 °F
Wind: 9 mph from Southeast

Location: Dallas Love Field

Current Time: Jan 28, 2015 at 6:51:14 AM

Latest Report: Jan 28, 2015 at 5:53 AM


Visibility: 10 mi

Pressure: 30.07 "Hg

Humidity: 74%

Dew point: 40 °F

Location of DallasLocation

Historic Weather in Dallas — Graph

°F

Dallas temperature yesterday

Maximum temperature yesterday: 78 °F (at 2:53 PM)
Minimum temperature yesterday: 45 °F (at 5:53 AM)
Average temperature yesterday: 60 °F

Past Weeks' High & Low Weather Summary

 TemperatureHumidityPressure
High78 °F (Jan 27, 2:53 PM)93% (Jan 22, 12:53 AM)30.51 "Hg (Jan 22, 12:53 AM)
Low32 °F (Jan 13, 6:53 AM)19% (Jan 18, 2:53 PM)29.91 "Hg (Jan 20, 4:53 AM)
Average49 °F58%30.17 "Hg
* Reported Jan 13 5:53 AM — Jan 28 5:53 AM, Dallas, Weather by CustomWeather, © 2014

Note: Actual official high and low records may vary slightly from our data, if they occured in-between our weather recording intervals... More about our weather records

Advertising

Dallas weather history for previous 24 hours

 ConditionsComfort  
Time TempWeatherWind HumidityBarometerVisibility
5:53 AM
Jan 28
48 °FClear.9 mph74%30.07 "Hg10 mi
4:53 AM49 °FClear.3 mph71%30.07 "Hg10 mi
3:53 AM49 °FClear.No wind71%30.07 "Hg10 mi
2:53 AM50 °FClear.No wind71%30.08 "Hg10 mi
1:53 AM52 °FClear.No wind66%30.09 "Hg10 mi
12:53 AM55 °FClear.No wind57%30.09 "Hg10 mi
11:53 PM
Jan 27
58 °FPassing clouds.3 mph50%30.10 "Hg10 mi
10:53 PM56 °FPassing clouds.3 mph58%30.10 "Hg10 mi
9:53 PM61 °FPassing clouds.9 mph46%30.09 "Hg10 mi
8:53 PM63 °FPassing clouds.6 mph43%30.10 "Hg10 mi
7:53 PM62 °FPassing clouds.6 mph44%30.10 "Hg10 mi
6:53 PM67 °FPassing clouds.6 mph35%30.09 "Hg10 mi
5:53 PM74 °FPartly sunny.No wind27%30.09 "Hg10 mi
4:53 PM77 °FPartly sunny.No wind24%30.09 "Hg10 mi
3:53 PM78 °FScattered clouds.5 mph21%30.09 "Hg10 mi
2:53 PM78 °FPassing clouds.No wind25%30.10 "Hg10 mi
1:53 PM75 °FPassing clouds.3 mph28%30.11 "Hg10 mi
12:53 PM72 °FSunny.No wind34%30.14 "Hg10 mi
11:53 AM68 °FPassing clouds.3 mph38%30.17 "Hg10 mi
10:53 AM62 °FSunny.3 mph44%30.18 "Hg10 mi
9:53 AM57 °FPassing clouds.6 mph51%30.18 "Hg10 mi
8:53 AM53 °FPassing clouds.No wind61%30.16 "Hg10 mi
7:53 AM48 °FPassing clouds.3 mph68%30.15 "Hg10 mi
6:53 AM45 °FPassing clouds.3 mph76%30.12 "Hg10 mi
Weather by CustomWeather, © 2014

See weather overviewHow to use our weather pages